When you browse on this site, cookies collect data to enhance your experience and personalize the content and advertising you see.
Visit our Privacy Policy to learn more. By continuing to use the site, you agree to this use of cookies and data.
  • In Romania
  • List of Countries
  • For 7 days
  • Water Temperature
  • Satellite Maps
  • Weather Map
  • Weather Widgets
  • user-avatar
    Login

    Hourly Weather Novaya Teplovka

    Today, 19 July, Friday

    Time Temperature Precipitation Wind Pressure Humidity
    00:00 +19°C° 0 mm 1 mps 742 mmHg 81%
    01:00 +19°C° 0 mm 1 mps 742 mmHg 80%
    02:00 +19°C° 0 mm 1 mps 742 mmHg 80%
    03:00 +19°C° 0 mm 1 mps 743 mmHg 80%
    04:00 +19°C° 0 mm 1 mps 743 mmHg 79%
    05:00 +20°C° 0 mm 1 mps 743 mmHg 77%
    06:00 +21°C° 0 mm 1 mps 743 mmHg 76%
    07:00 +22°C° 0 mm 1 mps 743 mmHg 72%
    08:00 +23°C° 0 mm 2 mps 744 mmHg 68%
    09:00 +24°C° 0 mm 3 mps 744 mmHg 64%
    10:00 +25°C° 0 mm 3 mps 744 mmHg 60%
    11:00 +26°C° 0 mm 4 mps 744 mmHg 57%
    12:00 +27°C° 0 mm 4 mps 744 mmHg 53%
    13:00 +27°C° 0.2 mm 4 mps 744 mmHg 53%
    14:00 +27°C° 0.2 mm 4 mps 744 mmHg 54%
    15:00 +27°C° 0.2 mm 4 mps 744 mmHg 55%
    16:00 +27°C° 0 mm 4 mps 744 mmHg 57%
    17:00 +26°C° 0 mm 3 mps 744 mmHg 60%
    18:00 +26°C° 0 mm 3 mps 744 mmHg 63%
    19:00 +24°C° 0 mm 2 mps 744 mmHg 67%
    20:00 +21°C° 0 mm 2 mps 745 mmHg 70%
    21:00 +20°C° 0 mm 1 mps 745 mmHg 73%
    22:00 +19°C° 0 mm 1 mps 745 mmHg 74%
    23:00 +19°C° 0 mm 1 mps 745 mmHg 75%

    Tomorrow, 20 July, Saturday

    Time Temperature Precipitation Wind Pressure Humidity
    00:00 +18°C° 0 mm 1 mps 745 mmHg 75%
    01:00 +18°C° 0 mm 1 mps 745 mmHg 77%
    02:00 +16°C° 0 mm 2 mps 745 mmHg 79%
    03:00 +16°C° 0 mm 2 mps 745 mmHg 80%
    04:00 +16°C° 0 mm 2 mps 746 mmHg 80%
    05:00 +17°C° 0 mm 2 mps 746 mmHg 80%
    06:00 +18°C° 0 mm 2 mps 746 mmHg 80%
    07:00 +19°C° 0 mm 3 mps 746 mmHg 77%
    08:00 +21°C° 0 mm 4 mps 746 mmHg 73%
    09:00 +22°C° 0 mm 4 mps 747 mmHg 69%
    10:00 +23°C° 0 mm 4 mps 747 mmHg 65%
    11:00 +25°C° 0 mm 5 mps 747 mmHg 60%
    12:00 +26°C° 0 mm 5 mps 747 mmHg 56%
    13:00 +26°C° 0 mm 5 mps 747 mmHg 54%
    14:00 +26°C° 0 mm 5 mps 747 mmHg 53%
    15:00 +26°C° 0 mm 6 mps 747 mmHg 51%
    16:00 +26°C° 0 mm 5 mps 747 mmHg 55%
    17:00 +25°C° 0 mm 4 mps 747 mmHg 59%
    18:00 +25°C° 0 mm 3 mps 747 mmHg 63%
    19:00 +22°C° 0 mm 3 mps 747 mmHg 67%
    20:00 +20°C° 0 mm 3 mps 748 mmHg 72%
    21:00 +18°C° 0 mm 3 mps 748 mmHg 76%
    22:00 +18°C° 0 mm 3 mps 748 mmHg 78%
    23:00 +17°C° 0 mm 3 mps 748 mmHg 80%

    Day after tomorrow, 21 July, Sunday

    Time Temperature Precipitation Wind Pressure Humidity
    00:00 +17°C° 0 mm 3 mps 748 mmHg 81%
    01:00 +16°C° 0 mm 3 mps 748 mmHg 84%
    02:00 +16°C° 0 mm 3 mps 748 mmHg 86%
    03:00 +16°C° 0 mm 3 mps 748 mmHg 88%
    04:00 +16°C° 0 mm 3 mps 748 mmHg 87%
    05:00 +17°C° 0 mm 3 mps 748 mmHg 85%
    06:00 +18°C° 0 mm 3 mps 748 mmHg 83%
    07:00 +19°C° 0 mm 4 mps 748 mmHg 76%
    08:00 +21°C° 0 mm 4 mps 748 mmHg 68%
    09:00 +23°C° 0 mm 4 mps 748 mmHg 61%
    10:00 +23°C° 0 mm 5 mps 748 mmHg 58%
    11:00 +25°C° 0 mm 5 mps 748 mmHg 55%
    12:00 +26°C° 0 mm 5 mps 748 mmHg 51%
    13:00 +26°C° 0 mm 5 mps 748 mmHg 51%
    14:00 +27°C° 0 mm 5 mps 747 mmHg 50%
    15:00 +27°C° 0 mm 5 mps 747 mmHg 49%
    16:00 +26°C° 0 mm 5 mps 747 mmHg 54%
    17:00 +26°C° 0 mm 4 mps 747 mmHg 58%
    18:00 +25°C° 0 mm 3 mps 747 mmHg 63%
    19:00 +24°C° 0 mm 3 mps 747 mmHg 66%
    20:00 +21°C° 0 mm 3 mps 747 mmHg 69%
    21:00 +19°C° 0 mm 3 mps 747 mmHg 73%
    22:00 +18°C° 0 mm 3 mps 747 mmHg 76%
    23:00 +18°C° 0 mm 3 mps 747 mmHg 78%

    22 July, Monday

    Time Temperature Precipitation Wind Pressure Humidity
    00:00 +17°C° 0 mm 3 mps 746 mmHg 81%
    01:00 +16°C° 0 mm 3 mps 746 mmHg 85%
    02:00 +16°C° 0 mm 3 mps 746 mmHg 88%
    03:00 +16°C° 0 mm 3 mps 746 mmHg 92%
    04:00 +16°C° 0 mm 3 mps 746 mmHg 90%
    05:00 +17°C° 0 mm 3 mps 746 mmHg 89%
    06:00 +17°C° 0 mm 3 mps 746 mmHg 87%
    07:00 +19°C° 0 mm 4 mps 746 mmHg 81%
    08:00 +20°C° 0 mm 4 mps 746 mmHg 74%
    09:00 +22°C° 0 mm 5 mps 746 mmHg 68%
    10:00 +23°C° 0 mm 5 mps 746 mmHg 64%
    11:00 +25°C° 0 mm 5 mps 746 mmHg 59%
    12:00 +26°C° 0 mm 5 mps 746 mmHg 55%
    13:00 +26°C° 0 mm 5 mps 745 mmHg 53%
    14:00 +26°C° 0 mm 5 mps 745 mmHg 51%
    15:00 +26°C° 0 mm 5 mps 745 mmHg 50%
    16:00 +26°C° 0 mm 5 mps 745 mmHg 54%
    17:00 +25°C° 0 mm 4 mps 745 mmHg 59%
    18:00 +25°C° 0 mm 3 mps 745 mmHg 64%
    19:00 +22°C° 0 mm 3 mps 745 mmHg 70%
    20:00 +20°C° 0 mm 2 mps 745 mmHg 76%
    21:00 +18°C° 0 mm 2 mps 745 mmHg 82%
    22:00 +18°C° 0 mm 2 mps 745 mmHg 83%
    23:00 +18°C° 0 mm 1 mps 745 mmHg 85%

    23 July, Tuesday

    Time Temperature Precipitation Wind Pressure Humidity
    00:00 +18°C° 0 mm 1 mps 745 mmHg 86%
    01:00 +16°C° 0 mm 1 mps 744 mmHg 87%
    02:00 +16°C° 0 mm 1 mps 744 mmHg 89%
    03:00 +15°C° 0 mm 1 mps 744 mmHg 90%
    04:00 +16°C° 0 mm 1 mps 744 mmHg 87%
    05:00 +18°C° 0 mm 1 mps 744 mmHg 85%
    06:00 +18°C° 0 mm 1 mps 744 mmHg 82%
    07:00 +18°C° 0 mm 0 mps 744 mmHg 75%
    08:00 +20°C° 0 mm 0 mps 744 mmHg 68%
    09:00 +22°C° 0 mm 0 mps 745 mmHg 61%
    10:00 +23°C° 0 mm 0 mps 744 mmHg 56%
    11:00 +26°C° 0 mm 1 mps 744 mmHg 51%
    12:00 +26°C° 0 mm 1 mps 744 mmHg 46%
    13:00 +27°C° 0 mm 1 mps 744 mmHg 45%
    14:00 +27°C° 0 mm 1 mps 744 mmHg 43%
    15:00 +27°C° 0 mm 1 mps 744 mmHg 42%
    16:00 +26°C° 0 mm 1 mps 744 mmHg 49%
    17:00 +24°C° 0 mm 1 mps 744 mmHg 56%
    18:00 +23°C° 0 mm 1 mps 744 mmHg 63%
    19:00 +23°C° 0 mm 1 mps 744 mmHg 62%
    20:00 +22°C° 0 mm 1 mps 744 mmHg 61%
    21:00 +21°C° 0 mm 2 mps 744 mmHg 59%
    22:00 +21°C° 0.1 mm 2 mps 744 mmHg 61%
    23:00 +21°C° 0.1 mm 3 mps 744 mmHg 62%

    24 July, Wednesday

    Time Temperature Precipitation Wind Pressure Humidity
    00:00 +20°C° 0.1 mm 4 mps 744 mmHg 63%
    01:00 +20°C° 0 mm 4 mps 744 mmHg 64%
    02:00 +20°C° 0 mm 4 mps 744 mmHg 66%
    03:00 +20°C° 0 mm 4 mps 744 mmHg 67%
    04:00 +20°C° 0 mm 4 mps 744 mmHg 67%
    05:00 +20°C° 0 mm 4 mps 743 mmHg 67%
    06:00 +19°C° 0 mm 4 mps 743 mmHg 68%
    07:00 +20°C° 0 mm 4 mps 744 mmHg 67%
    08:00 +20°C° 0 mm 4 mps 744 mmHg 67%
    09:00 +20°C° 0 mm 4 mps 744 mmHg 67%
    10:00 +22°C° 0 mm 4 mps 744 mmHg 62%
    11:00 +25°C° 0 mm 5 mps 744 mmHg 57%
    12:00 +27°C° 0 mm 5 mps 744 mmHg 53%
    13:00 +26°C° 0 mm 4 mps 744 mmHg 55%
    14:00 +26°C° 0 mm 3 mps 744 mmHg 57%
    15:00 +26°C° 0 mm 2 mps 744 mmHg 60%
    16:00 +25°C° 0.1 mm 2 mps 744 mmHg 62%
    17:00 +24°C° 0.1 mm 3 mps 744 mmHg 65%
    18:00 +24°C° 0.1 mm 3 mps 743 mmHg 68%
    19:00 +23°C° 0 mm 4 mps 743 mmHg 64%
    20:00 +23°C° 0 mm 6 mps 744 mmHg 60%
    21:00 +23°C° 0 mm 7 mps 744 mmHg 56%
    22:00 +23°C° 0 mm 7 mps 744 mmHg 56%
    23:00 +22°C° 0 mm 7 mps 743 mmHg 57%
    Show more